• In Hungary
  • List of Countries
  • For 7 days
  • Water Temperature
  • Satellite Maps
  • Weather Map
  • News
  • Weather Widgets
  • user-avatar
    Login

    Hourly Weather Puerto Santa María

    Today, 15 December, Friday

    Time Temperature Precipitation Wind Pressure Humidity
    00:00 +29°C° 0 mm 2 mps 749 mmHg 59%
    01:00 +29°C° 0 mm 1 mps 749 mmHg 61%
    02:00 +28°C° 0 mm 1 mps 750 mmHg 66%
    03:00 +27°C° 0 mm 1 mps 750 mmHg 68%
    04:00 +27°C° 0 mm 1 mps 750 mmHg 70%
    05:00 +27°C° 0 mm 1 mps 750 mmHg 72%
    06:00 +29°C° 0 mm 1 mps 750 mmHg 65%
    07:00 +32°C° 0 mm 1 mps 750 mmHg 58%
    08:00 +36°C° 0 mm 2 mps 751 mmHg 50%
    09:00 +38°C° 0 mm 2 mps 750 mmHg 44%
    10:00 +40°C° 0 mm 1 mps 750 mmHg 37%
    11:00 +42°C° 0 mm 1 mps 749 mmHg 31%
    12:00 +42°C° 0 mm 1 mps 749 mmHg 31%
    13:00 +42°C° 0 mm 1 mps 748 mmHg 30%
    14:00 +42°C° 0 mm 1 mps 747 mmHg 30%
    15:00 +41°C° 0 mm 1 mps 747 mmHg 31%
    16:00 +41°C° 0 mm 2 mps 747 mmHg 32%
    17:00 +40°C° 0 mm 2 mps 746 mmHg 33%
    18:00 +38°C° 0 mm 2 mps 746 mmHg 38%
    19:00 +35°C° 0 mm 1 mps 746 mmHg 43%
    20:00 +33°C° 0 mm 1 mps 746 mmHg 47%
    21:00 +32°C° 0 mm 1 mps 746 mmHg 49%
    22:00 +32°C° 0 mm 1 mps 747 mmHg 51%
    23:00 +31°C° 0 mm 1 mps 747 mmHg 52%

    Tomorrow, 16 December, Saturday

    Time Temperature Precipitation Wind Pressure Humidity
    00:00 +30°C° 0 mm 1 mps 747 mmHg 55%
    01:00 +30°C° 0 mm 2 mps 747 mmHg 57%
    02:00 +29°C° 0 mm 2 mps 747 mmHg 59%
    03:00 +29°C° 0 mm 2 mps 747 mmHg 61%
    04:00 +28°C° 0 mm 2 mps 748 mmHg 62%
    05:00 +28°C° 0 mm 2 mps 748 mmHg 64%
    06:00 +30°C° 0 mm 2 mps 748 mmHg 58%
    07:00 +34°C° 0 mm 3 mps 748 mmHg 53%
    08:00 +36°C° 0 mm 4 mps 749 mmHg 47%
    09:00 +38°C° 0 mm 3 mps 748 mmHg 41%
    10:00 +40°C° 0 mm 3 mps 748 mmHg 35%
    11:00 +43°C° 0 mm 3 mps 748 mmHg 29%
    12:00 +44°C° 0 mm 3 mps 747 mmHg 27%
    13:00 +44°C° 0 mm 3 mps 746 mmHg 25%
    14:00 +45°C° 0 mm 3 mps 745 mmHg 23%
    15:00 +45°C° 0 mm 3 mps 744 mmHg 24%
    16:00 +44°C° 0 mm 3 mps 744 mmHg 26%
    17:00 +43°C° 0 mm 3 mps 743 mmHg 27%
    18:00 +40°C° 0 mm 3 mps 743 mmHg 31%
    19:00 +38°C° 0 mm 3 mps 744 mmHg 35%
    20:00 +36°C° 0 mm 3 mps 744 mmHg 39%
    21:00 +36°C° 0 mm 3 mps 744 mmHg 42%
    22:00 +35°C° 0 mm 3 mps 745 mmHg 45%
    23:00 +34°C° 0 mm 3 mps 745 mmHg 47%

    Day after tomorrow, 17 December, Sunday

    Time Temperature Precipitation Wind Pressure Humidity
    00:00 +34°C° 0 mm 3 mps 745 mmHg 49%
    01:00 +33°C° 0 mm 3 mps 745 mmHg 52%
    02:00 +33°C° 0 mm 3 mps 745 mmHg 54%
    03:00 +31°C° 0 mm 3 mps 745 mmHg 57%
    04:00 +31°C° 0 mm 2 mps 745 mmHg 59%
    05:00 +30°C° 0 mm 2 mps 746 mmHg 62%
    06:00 +33°C° 0 mm 3 mps 747 mmHg 58%
    07:00 +35°C° 0 mm 3 mps 747 mmHg 54%
    08:00 +36°C° 0 mm 4 mps 748 mmHg 50%
    09:00 +38°C° 0 mm 3 mps 749 mmHg 44%
    10:00 +40°C° 0 mm 3 mps 749 mmHg 38%
    11:00 +43°C° 0 mm 3 mps 749 mmHg 32%
    12:00 +42°C° 0 mm 2 mps 748 mmHg 32%
    13:00 +42°C° 0 mm 2 mps 748 mmHg 31%
    14:00 +42°C° 0 mm 2 mps 747 mmHg 31%
    15:00 +42°C° 0 mm 1 mps 747 mmHg 32%
    16:00 +41°C° 0 mm 1 mps 746 mmHg 32%
    17:00 +41°C° 0 mm 1 mps 746 mmHg 33%
    18:00 +39°C° 0 mm 1 mps 747 mmHg 36%
    19:00 +37°C° 0 mm 1 mps 747 mmHg 39%
    20:00 +36°C° 0 mm 1 mps 748 mmHg 41%
    21:00 +35°C° 0.1 mm 2 mps 749 mmHg 47%
    22:00 +34°C° 0.1 mm 3 mps 749 mmHg 53%
    23:00 +33°C° 0.1 mm 4 mps 750 mmHg 59%

    18 December, Monday

    Time Temperature Precipitation Wind Pressure Humidity
    00:00 +31°C° 0 mm 3 mps 750 mmHg 61%
    01:00 +31°C° 0 mm 2 mps 749 mmHg 63%
    02:00 +30°C° 0 mm 2 mps 749 mmHg 65%
    03:00 +30°C° 0.2 mm 2 mps 749 mmHg 67%
    04:00 +29°C° 0.2 mm 1 mps 750 mmHg 70%
    05:00 +29°C° 0.2 mm 1 mps 750 mmHg 73%
    06:00 +30°C° 0.1 mm 1 mps 751 mmHg 71%
    07:00 +31°C° 0.1 mm 1 mps 751 mmHg 69%
    08:00 +31°C° 0.1 mm 1 mps 752 mmHg 67%
    09:00 +33°C° 0.1 mm 1 mps 752 mmHg 61%
    10:00 +35°C° 0.1 mm 1 mps 752 mmHg 54%
    11:00 +37°C° 0.1 mm 1 mps 752 mmHg 48%
    12:00 +39°C° 0 mm 1 mps 751 mmHg 47%
    13:00 +39°C° 0 mm 1 mps 751 mmHg 45%
    14:00 +39°C° 0 mm 1 mps 750 mmHg 44%
    15:00 +37°C° 0 mm 1 mps 750 mmHg 47%
    16:00 +36°C° 0 mm 1 mps 749 mmHg 51%
    17:00 +35°C° 0 mm 1 mps 749 mmHg 55%
    18:00 +33°C° 0.2 mm 1 mps 749 mmHg 60%
    19:00 +32°C° 0.2 mm 1 mps 749 mmHg 65%
    20:00 +30°C° 0.2 mm 1 mps 749 mmHg 71%
    21:00 +29°C° 1.4 mm 1 mps 750 mmHg 77%
    22:00 +28°C° 1.4 mm 1 mps 750 mmHg 84%
    23:00 +27°C° 1.4 mm 1 mps 751 mmHg 90%

    19 December, Tuesday

    Time Temperature Precipitation Wind Pressure Humidity
    00:00 +27°C° 0 mm 1 mps 751 mmHg 90%
    01:00 +27°C° 0 mm 1 mps 750 mmHg 90%
    02:00 +27°C° 0 mm 1 mps 750 mmHg 91%
    03:00 +27°C° 0 mm 1 mps 750 mmHg 90%
    04:00 +26°C° 0 mm 1 mps 750 mmHg 90%
    05:00 +26°C° 0 mm 1 mps 750 mmHg 90%
    06:00 +28°C° 0 mm 2 mps 750 mmHg 81%
    07:00 +30°C° 0 mm 2 mps 751 mmHg 72%
    08:00 +32°C° 0 mm 2 mps 751 mmHg 64%
    09:00 +35°C° 0 mm 2 mps 751 mmHg 55%
    10:00 +38°C° 0 mm 3 mps 751 mmHg 46%
    11:00 +40°C° 0 mm 3 mps 750 mmHg 37%
    12:00 +40°C° 0 mm 2 mps 750 mmHg 38%
    13:00 +39°C° 0 mm 2 mps 749 mmHg 39%
    14:00 +39°C° 0 mm 1 mps 748 mmHg 40%
    15:00 +39°C° 0 mm 1 mps 748 mmHg 41%
    16:00 +37°C° 0 mm 1 mps 748 mmHg 41%
    17:00 +37°C° 0 mm 1 mps 748 mmHg 42%
    18:00 +35°C° 0.1 mm 1 mps 748 mmHg 48%
    19:00 +33°C° 0.1 mm 1 mps 748 mmHg 54%
    20:00 +31°C° 0.1 mm 2 mps 748 mmHg 60%
    21:00 +30°C° 0.1 mm 2 mps 748 mmHg 64%
    22:00 +29°C° 0.1 mm 2 mps 748 mmHg 68%
    23:00 +29°C° 0.1 mm 1 mps 749 mmHg 72%

    20 December, Wednesday

    Time Temperature Precipitation Wind Pressure Humidity
    00:00 +28°C° 0.1 mm 1 mps 748 mmHg 74%
    01:00 +28°C° 0.1 mm 1 mps 748 mmHg 75%
    02:00 +28°C° 0.1 mm 1 mps 748 mmHg 77%
    03:00 +27°C° 1.2 mm 1 mps 748 mmHg 82%
    04:00 +26°C° 1.2 mm 1 mps 748 mmHg 87%
    05:00 +26°C° 1.2 mm 1 mps 749 mmHg 92%
    06:00 +28°C° 0.1 mm 2 mps 749 mmHg 84%
    07:00 +29°C° 0.1 mm 2 mps 749 mmHg 77%
    08:00 +31°C° 0.1 mm 2 mps 750 mmHg 69%
    09:00 +34°C° 0 mm 3 mps 749 mmHg 61%
    10:00 +36°C° 0 mm 3 mps 749 mmHg 52%
    11:00 +38°C° 0 mm 4 mps 748 mmHg 43%
    12:00 +39°C° 0 mm 3 mps 747 mmHg 41%
    13:00 +39°C° 0 mm 3 mps 746 mmHg 39%
    14:00 +40°C° 0 mm 2 mps 745 mmHg 37%
    15:00 +39°C° 0 mm 2 mps 745 mmHg 39%
    16:00 +37°C° 0 mm 1 mps 745 mmHg 41%
    17:00 +37°C° 0 mm 1 mps 744 mmHg 44%
    18:00 +35°C° 0.1 mm 1 mps 745 mmHg 48%
    19:00 +34°C° 0.1 mm 1 mps 745 mmHg 52%
    20:00 +34°C° 0.1 mm 2 mps 745 mmHg 56%
    21:00 +31°C° 1.9 mm 2 mps 745 mmHg 66%
    22:00 +29°C° 1.9 mm 1 mps 746 mmHg 76%
    23:00 +28°C° 1.9 mm 1 mps 746 mmHg 86%
    Show more